Tracking 35237 objects as of 5-Sep-2026
HD Live streaming from Space Station
objects crossing your sky now

COSMOS 2340

Track COSMOS 2340 now!
COSMOS 2340 is classified as:


NORAD ID: 24761
Int'l Code: 1997-015A
Launch date: April 9, 1997
Source: Commonwealth of Independent States (former USSR) (CIS)
Launch site: PLESETSK MISSILE AND SPACE COMPLEX (PKMTR)
Your satellite tracking list
Your tracking list is empty




NASA's NSSDC Master Catalog

Two Line Element Set (TLE):
1 24761U 97015A   26247.03421064 -.00000706  00000-0  00000-0 0  9997
2 24761  65.3369 143.6441 6300710 151.1547 266.9734  2.00838421215427
Source of the keplerian elements: AFSPC